McGuire AFB, NJ

6:25 PM EDT on March 22, 2017 (GMT -0400)
McGuire Air Force Base

Weather History for KWRI - August, 2014

Change the Weather History Date:

Tuesday, August 19, 2014

  Actual Average Record
Temperature  
Mean Temperature 70 °F -  
Max Temperature 82 °F 82 °F 95 °F (2002)
Min Temperature 58 °F 63 °F 57 °F (1997)
Cooling Degree Days 5    
Growing Degree Days 20 (Base 50)    
Moisture  
Dew Point 64 °F    
Average Humidity 73    
Maximum Humidity 100    
Minimum Humidity 54    
Precipitation  
Precipitation 0.00 in - - ()
Sea Level Pressure  
Sea Level Pressure 29.87 in    
Wind  
Wind Speed 4 mph (East)    
Max Wind Speed 10 mph    
Max Gust Speed -    
Visibility 10 miles    
Events Rain    
Averages and records for this station are not official NWS values.
T = Trace of Precipitation, MM = Missing Value Source: NWS Daily Summary

Daily Weather History Graph

Daily Weather History Graph

Search for Another Location

Airport or City:

Trip Planner

Search our weather history database for the weather conditions in past years. The results will help you decide how hot, cold, wet, or windy it might be!

Date:

Astronomy

Aug. 19, 2014 Rise Set
Actual Time 6:13 AM EDT 7:49 PM EDT
Civil Twilight 5:45 AM EDT 8:18 PM EDT
Nautical Twilight 5:10 AM EDT 8:52 PM EDT
Astronomical Twilight 4:33 AM EDT 9:29 PM EDT
Moon 1:03 AM EDT (8/19) 3:43 PM EDT (8/19)
Length of Visible Light 14h 33m
Length of Day
13h 35m
Waning Crescent, 29% of the Moon is Illuminated
Aug 19
Waning Crescent
Aug 25
New
Sep 2
First Quarter
Sep 8
Full
Sep 15
Last Quarter

Hourly Weather History & Observations

Time (EDT) Temp. Heat Index Dew Point Humidity Pressure Visibility Wind Dir Wind Speed Gust Speed Precip Events Conditions
12:58 AM 64.0 °F - 61.7 °F 92% 29.86 in 10.0 mi NNE 3.5 mph - N/A   Scattered Clouds
1:58 AM 62.2 °F - 61.3 °F 97% 29.85 in 10.0 mi SSE 2.3 mph - N/A   Clear
2:58 AM 61.2 °F - 61.0 °F 99% 29.84 in 10.0 mi ENE 2.3 mph - N/A   Clear
3:58 AM 60.1 °F - 60.1 °F 100% 29.84 in 10.0 mi NE 3.5 mph - N/A   Clear
4:58 AM 60.3 °F - 60.3 °F 100% 29.85 in 10.0 mi NNE 2.3 mph - N/A   Clear
5:58 AM 58.8 °F - 57.9 °F 97% 29.86 in 10.0 mi NNE 2.3 mph - N/A   Clear
6:58 AM 59.5 °F - 56.8 °F 91% 29.87 in 10.0 mi ENE 3.5 mph - N/A   Clear
7:58 AM 65.1 °F - 61.5 °F 88% 29.88 in 10.0 mi ENE 4.6 mph - 0.00 in Rain Light Rain
8:04 AM 66.2 °F - 62.6 °F 88% 29.87 in 10.0 mi ENE 4.6 mph - N/A Rain Light Rain
8:13 AM 66.2 °F - 62.6 °F 88% 29.86 in 10.0 mi ENE 5.8 mph - N/A   Scattered Clouds
8:18 AM 66.2 °F - 62.6 °F 88% 29.86 in 10.0 mi ENE 5.8 mph - N/A   Mostly Cloudy
8:28 AM 66.2 °F - 64.4 °F 94% 29.86 in 10.0 mi ENE 6.9 mph - N/A   Mostly Cloudy
8:58 AM 67.8 °F - 66.4 °F 95% 29.88 in 10.0 mi East 4.6 mph - 0.00 in   Overcast
9:21 AM 69.8 °F - 66.2 °F 88% 29.87 in 10.0 mi East 4.6 mph - N/A   Scattered Clouds
9:58 AM 74.1 °F - 66.9 °F 78% 29.88 in 10.0 mi East 3.5 mph - N/A   Clear
10:58 AM 77.2 °F - 66.7 °F 70% 29.89 in 10.0 mi ENE 4.6 mph - N/A   Scattered Clouds
11:58 AM 78.3 °F - 65.8 °F 65% 29.88 in 10.0 mi NE 4.6 mph - N/A   Scattered Clouds
12:30 PM 80.6 °F 82.7 °F 66.2 °F 61% 29.87 in 10.0 mi Variable 2.3 mph - N/A Rain Light Rain
12:33 PM 80.6 °F 82.7 °F 66.2 °F 61% 29.87 in 10.0 mi Calm Calm - N/A   Scattered Clouds
12:39 PM 80.6 °F 82.7 °F 66.2 °F 61% 29.87 in 10.0 mi ENE 5.8 mph - N/A   Mostly Cloudy
12:48 PM 80.6 °F 82.7 °F 66.2 °F 61% 29.87 in 10.0 mi ENE 4.6 mph - N/A Rain Light Rain
12:54 PM 80.6 °F 82.7 °F 66.2 °F 61% 29.87 in 10.0 mi ENE 4.6 mph - N/A   Mostly Cloudy
12:56 PM 80.6 °F 82.7 °F 66.2 °F 61% 29.87 in 10.0 mi East 6.9 mph - N/A   Mostly Cloudy
12:58 PM 80.6 °F 82.3 °F 64.4 °F 58% 29.88 in 10.0 mi East 5.8 mph - 0.00 in   Mostly Cloudy
1:00 PM 80.6 °F 82.3 °F 64.4 °F 58% 29.87 in 10.0 mi Variable 4.6 mph - N/A Rain Light Rain
1:10 PM 82.4 °F 83.9 °F 64.4 °F 54% 29.87 in 10.0 mi SE 4.6 mph - N/A   Scattered Clouds
1:15 PM 82.4 °F 83.9 °F 64.4 °F 54% 29.87 in 10.0 mi SE 6.9 mph - N/A Rain Light Rain
1:18 PM 82.4 °F 83.9 °F 64.4 °F 54% 29.87 in 10.0 mi Variable 2.3 mph - N/A   Partly Cloudy
1:29 PM 82.4 °F 83.9 °F 64.4 °F 54% 29.87 in 10.0 mi ENE 9.2 mph - N/A Rain Light Rain
1:34 PM 80.6 °F 82.3 °F 64.4 °F 58% 29.87 in 10.0 mi ENE 8.1 mph - N/A   Scattered Clouds
1:54 PM 80.6 °F 82.3 °F 64.4 °F 58% 29.87 in 10.0 mi East 6.9 mph - N/A Rain Light Rain
1:58 PM 80.1 °F 81.8 °F 64.4 °F 59% 29.88 in 9.0 mi East 5.8 mph - 0.00 in Rain Light Rain
2:00 PM 78.8 °F - 64.4 °F 61% 29.87 in 9.0 mi ESE 4.6 mph - N/A   Partly Cloudy
2:58 PM 79.0 °F - 65.5 °F 63% 29.87 in 10.0 mi SE 10.4 mph - 0.00 in   Mostly Cloudy
3:58 PM 81.3 °F 83.2 °F 65.1 °F 58% 29.87 in 10.0 mi South 8.1 mph - N/A   Scattered Clouds
4:58 PM 81.5 °F 82.9 °F 63.9 °F 55% 29.86 in 10.0 mi Variable 4.6 mph - N/A   Clear
5:58 PM 79.0 °F - 64.4 °F 61% 29.87 in 10.0 mi SSE 8.1 mph - N/A   Clear
6:58 PM 75.6 °F - 63.3 °F 66% 29.87 in 10.0 mi SE 6.9 mph - 0.00 in   Clear
7:58 PM 71.8 °F - 63.1 °F 74% 29.89 in 10.0 mi SE 3.5 mph - N/A   Clear
8:58 PM 69.6 °F - 63.0 °F 79% 29.90 in 10.0 mi SSE 4.6 mph - N/A   Clear
9:58 PM 68.2 °F - 62.2 °F 81% 29.91 in 10.0 mi Calm Calm - 0.00 in   Clear
10:58 PM 67.5 °F - 62.6 °F 84% 29.92 in 10.0 mi SSW 2.3 mph - N/A   Partly Cloudy
11:58 PM 66.7 °F - 62.6 °F 86% 29.92 in 10.0 mi ESE 2.3 mph - N/A   Mostly Cloudy